Location: Chełm
(51.1339°N, 23.4725°E)
Time: 05:56:34
(UTC+01:00)

ISS - Pass Details

Date: 29 January 2019
Orbit: 403 x 411 km, 51.6° (Epoch: 17 February)

Event Time Altitude Azimuth Distance (km) Brightness Sun altitude
Rises 18:17:20 0° 264° (W) 2,335 1.7 -19.7°
Reaches altitude 10° 18:19:25 10° 266° (W) 1,476 0.2 -20.1°
Enters shadow 18:22:33 77° 298° (WNW) 426 -3.8 -20.6°
